RH
28 26 25 20 15 17 11 11 18 23 24 20 22 27 28 27 24 18 20 23 20 22 20 18 19 21 19 21 21 21 46 48 39 37 36 28 29 29 30 30 30 29 30 31 31
24 25 21 16 14 15 11 23 23 23 21 23 25 26 27 24 21 22 25 23 20 19 19 21 22 19 21 23 23 30 53 42 33 32 33 29 28 30 31 30 30 31 32 33 34
20 24 20 15 15 12 22 21 21 22 23 23 23 23 23 28 21 24 23 22 22 20 19 19 22 19 24 23 26 30 43 33 32 30 28 31 31 30 32 36 31 33 34 34 36
18 24 18 15 13 21 21 20 23 26 23 21 22 24 24 26 30 24 20 21 20 21 20 19 21 24 31 36 27 37 31 30 29 27 26 30 30 31 31 32 32 33 34 35 37
17 24 16 12 20 21 21 26 27 22 21 23 23 24 22 23 27 26 20 21 19 20 19 20 18 22 34 30 30 36 30 28 26 26 28 28 30 31 30 30 32 34 35 36 38
17 22 14 19 23 24 26 23 21 21 22 24 24 23 20 25 26 25 20 20 18 20 20 19 22 24 26 30 34 29 27 26 26 26 27 29 29 26 28 29 31 33 34 36 38
17 21 15 26 27 26 23 21 21 20 23 22 23 21 22 25 25 25 19 14 19 20 21 22 22 21 23 28 27 26 32 28 27 27 27 25 30 30 26 26 30 32 34 36 40
18 20 18 28 26 24 21 21 19 20 22 23 22 21 24 23 24 24 20 17 20 20 22 22 20 22 23 25 27 33 34 43 31 26 25 30 44 26 24 25 26 29 30 34 37
20 18 23 28 28 23 23 21 18 18 21 20 20 20 23 21 22 22 21 20 18 19 20 20 19 24 26 34 37 34 41 41 35 26 30 35 42 26 24 25 26 29 30 33 36
22 18 26 28 24 23 22 21 18 18 19 18 20 20 21 21 20 21 22 18 18 18 18 19 23 33 30 36 42 31 28 38 40 33 32 39 37 29 25 26 26 29 31 33 37
22 22 28 26 23 24 22 23 23 18 20 22 21 21 21 21 19 19 18 18 19 18 20 19 32 31 25 23 23 24 23 31 35 28 31 37 39 35 27 27 28 31 32 33 38
25 26 24 24 23 25 31 28 25 23 22 21 20 20 20 20 18 17 17 17 17 22 18 28 30 24 22 22 22 23 18 29 32 31 30 31 38 35 29 28 31 31 32 34 37
27 26 25 25 24 25 29 24 22 24 22 22 21 20 20 19 22 20 18 19 20 24 28 31 23 20 19 27 27 29 27 28 24 32 29 31 40 40 32 31 30 31 31 35 36
27 27 26 25 27 26 21 21 21 18 32 24 21 20 21 24 24 21 21 22 21 26 24 25 24 24 23 28 28 29 26 24 27 32 40 32 47 42 40 39 32 32 32 33 37
29 28 27 32 26 30 20 22 21 22 38 22 22 20 21 23 24 22 20 19 25 26 26 31 28 30 28 28 27 28 25 26 29 34 32 38 47 47 43 44 40 33 31 34 39
30 28 27 26 27 27 22 24 23 33 36 27 21 21 22 23 23 22 22 21 23 23 28 28 25 28 28 27 28 26 31 30 32 42 52 41 41 48 48 41 36 32 31 36 41
29 28 27 25 26 22 20 22 40 38 21 28 27 22 26 28 26 25 31 36 39 35 32 30 29 28 24 28 26 33 35 43 36 52 50 40 39 43 38 35 32 30 33 40 44
27 26 25 25 25 23 20 36 36 26 29 24 24 25 28 28 27 28 31 41 37 38 40 33 32 32 26 27 29 34 31 37 32 39 34 26 34 43 35 29 28 30 36 41 46
28 27 26 24 24 22 26 49 43 33 26 26 25 28 30 27 26 29 40 41 41 37 39 34 35 28 29 28 24 24 31 25 30 30 34 34 40 34 33 31 29 33 37 46 51
28 26 24 23 22 23 40 45 40 33 33 29 30 29 31 31 28 29 36 38 38 32 31 32 35 30 31 28 26 22 20 27 34 34 37 36 39 43 44 38 33 34 43 50 55
30 35 23 23 24 31 51 40 38 33 32 32 36 28 31 31 30 34 42 40 36 37 31 30 33 29 28 31 29 31 28 23 26 36 36 43 39 30 42 36 34 39 46 52 56
41 49 25 24 34 44 52 36 32 35 32 32 35 37 34 38 39 39 43 42 34 31 31 31 38 37 29 24 23 28 25 24 37 31 34 36 37 28 32 30 31 41 51 55 58
43 33 26 32 49 58 40 42 42 36 38 34 38 36 33 39 43 40 48 34 32 38 39 36 38 40 32 31 25 27 26 22 25 28 32 35 38 28 27 29 31 48 54 58 61
45 47 27 30 36 44 42 42 45 40 37 35 37 34 34 37 37 45 53 46 36 40 29 35 42 36 33 29 28 30 25 23 26 36 34 35 29 32 32 32 46 54 58 61 60
40 54 43 48 36 35 36 41 46 42 38 36 36 37 35 38 38 42 52 48 41 44 36 36 42 37 37 37 32 32 32 32 31 30 31 29 28 30 32 31 48 56 58 59 60
34 38 41 40 37 36 41 38 42 44 40 38 40 35 36 38 40 40 45 47 41 39 33 38 40 36 34 24 23 27 30 34 34 32 33 29 31 26 27 43 52 55 58 62 53
34 39 41 45 40 43 46 39 41 40 43 42 40 39 41 40 37 35 34 33 34 37 40 42 44 40 39 39 41 46 37 32 27 27 26 29 27 27 36 46 56 62 62 62 17
Wind_Speed
11 11 11 12 13 13 14 16 18 18 16 18 20 19 18 19 17 15 20 15 10 12 13 13 16 9 10 12 15 11 5 5 4 4 6 11 9 19 23 31 26 19 21 14 9
10 11 12 12 13 15 16 17 16 17 19 19 17 16 17 15 19 23 17 14 12 8 13 23 13 9 12 12 11 9 5 6 6 14 11 18 18 12 12 22 22 23 16 9 5
9 12 11 12 15 17 18 20 21 19 16 14 13 10 7 6 14 18 13 11 12 13 11 13 5 8 15 14 10 6 6 9 15 27 27 17 16 5 22 8 15 16 14 13 11
9 11 11 13 17 19 19 19 16 13 11 10 6 7 10 5 5 13 10 13 9 11 7 8 5 7 7 7 10 8 13 11 17 16 11 6 9 16 16 11 14 12 11 9 12
10 12 13 15 19 19 17 12 11 12 13 14 10 8 11 18 13 14 10 10 11 9 16 13 15 14 6 11 28 15 15 17 21 20 19 17 15 14 19 15 12 10 9 11 11
11 13 16 18 18 16 14 15 17 16 15 14 10 12 14 22 13 15 15 9 12 12 14 10 19 23 15 7 8 16 23 21 17 13 16 16 13 5 10 12 10 8 9 8 9
13 16 18 19 18 17 17 18 15 15 19 17 15 16 21 12 10 12 14 14 11 11 17 14 5 2 10 13 22 28 8 9 12 14 7 20 4 4 14 11 12 11 11 11 11
17 19 20 20 17 17 16 13 15 14 14 14 16 13 10 11 10 9 10 17 15 14 17 15 13 18 8 28 10 5 4 3 8 12 11 5 3 10 12 11 10 12 11 10 9
19 20 21 19 17 18 15 14 13 10 8 8 10 7 5 8 9 9 6 9 9 11 15 10 14 20 13 6 3 2 2 4 3 18 6 9 3 13 12 11 10 11 9 6 7
19 21 21 19 20 17 17 17 10 9 7 6 9 7 6 10 8 7 5 7 4 4 4 3 6 5 4 4 2 3 3 3 4 6 7 5 3 12 13 10 10 11 8 6 8
20 20 18 20 19 15 17 6 3 8 23 11 11 14 7 3 11 6 5 3 2 1 3 7 8 2 3 2 4 4 3 3 1 1 3 6 8 8 15 11 9 9 7 5 5
20 20 22 20 16 12 4 3 11 9 12 11 12 13 10 4 4 6 10 7 6 4 3 7 3 4 6 5 3 4 2 3 2 4 2 3 5 8 16 11 11 6 2 0 2
20 21 16 15 12 1 2 6 15 6 5 6 10 10 8 9 8 14 9 8 10 7 7 6 3 8 1 6 6 4 3 3 2 3 2 2 0 7 7 12 7 2 3 5 7
20 17 16 12 5 6 8 9 5 2 5 7 5 5 9 2 6 14 9 5 5 4 5 5 6 4 4 3 3 3 1 1 3 2 3 4 4 4 5 6 10 6 7 6 7
16 16 13 3 9 4 4 2 3 2 4 3 3 3 10 7 1 12 12 9 4 4 3 1 4 6 5 2 2 5 3 3 2 2 1 2 2 3 7 5 5 8 7 7 7
14 14 10 6 5 4 3 5 2 5 1 1 2 1 1 9 5 4 6 6 4 3 8 2 2 2 2 5 4 8 3 1 1 1 2 5 4 2 4 5 5 6 6 6 7
13 12 9 2 2 3 4 7 4 5 1 2 2 2 4 5 4 3 4 7 4 3 3 0 1 3 4 4 4 7 6 4 5 3 5 5 2 3 4 6 8 5 6 5 8
12 11 9 2 2 3 3 4 7 3 2 1 1 3 4 1 2 5 4 4 6 4 2 1 4 5 6 3 2 3 3 4 4 3 5 1 4 3 6 9 7 8 6 4 9
11 9 6 4 4 2 2 5 3 1 2 3 0 1 1 1 2 4 5 2 2 4 4 4 1 1 1 1 0 4 4 3 1 2 2 2 1 3 5 7 6 6 5 5 7
10 7 4 4 4 2 5 4 3 3 4 1 2 2 3 4 2 4 2 3 1 2 2 1 3 2 1 1 1 1 2 2 3 4 5 5 2 4 8 7 6 4 5 4 4
10 4 4 5 4 1 4 3 3 3 3 4 3 2 3 3 3 3 3 3 5 5 4 3 2 3 3 1 1 2 1 1 2 4 3 4 6 4 8 7 5 8 6 5 4
4 2 7 7 2 5 2 2 4 1 5 4 4 3 3 4 4 3 2 1 3 3 2 2 3 3 3 1 1 1 2 4 4 5 3 2 6 6 10 9 10 8 9 5 6
3 3 7 2 3 2 2 3 4 2 4 2 2 4 3 2 2 2 3 1 1 2 2 2 0 4 6 2 1 2 3 3 3 3 5 3 6 8 8 9 7 13 8 3 7
3 2 3 1 4 8 5 3 3 3 3 4 4 2 2 2 3 3 2 2 1 0 1 1 1 5 5 6 2 4 4 4 5 3 3 7 4 5 5 6 12 10 6 5 11
1 2 3 2 1 5 4 5 5 3 3 2 2 1 2 3 1 2 3 1 1 1 1 2 2 2 7 10 4 7 7 8 9 6 6 3 4 4 7 8 11 9 3 6 10
2 3 4 3 8 7 2 4 4 3 3 2 3 2 2 3 1 3 3 4 3 3 1 1 3 3 5 1 2 7 8 8 7 5 10 16 15 10 11 14 10 5 2 6 11
3 5 3 2 4 4 3 4 5 12 2 4 4 4 3 4 4 4 4 4 4 5 4 3 1 3 5 7 8 7 5 7 4 6 5 5 4 16 6 9 8 6 2 6 9
Wind_Direction
104 108 110 103 104 112 109 108 109 106 102 106 106 101 89 77 62 75 55 44 54 65 68 63 59 36 30 53 57 65 63 49 111 126 118 124 109 75 82 81 78 86 90 89 80
106 107 103 103 114 115 115 113 109 108 109 110 112 105 97 77 63 60 41 40 43 63 89 66 79 60 58 43 39 74 71 41 71 123 132 116 119 111 86 85 86 86 83 72 44
113 104 103 108 116 119 117 113 108 107 113 115 107 91 58 62 55 21 32 45 53 59 73 72 72 58 50 45 23 53 109 109 85 111 110 98 64 131 116 58 89 90 84 68 45
112 110 109 116 121 119 119 115 108 104 114 116 98 67 63 64 67 9 37 65 67 54 51 61 117 62 73 45 64 96 88 110 116 109 108 88 101 78 95 120 109 99 86 69 49
123 124 122 126 123 121 121 113 102 104 99 103 96 76 83 76 41 35 52 68 86 57 59 123 98 95 83 100 77 80 93 99 114 107 101 116 105 111 111 123 118 109 85 70 49
135 136 132 130 125 122 115 108 104 103 89 83 89 92 85 74 56 57 44 67 72 85 81 98 101 107 87 61 72 121 113 114 117 119 131 118 137 96 139 139 137 114 92 67 42
142 140 136 131 124 117 112 109 91 106 101 89 78 84 75 72 64 69 49 57 72 96 97 106 87 71 100 91 120 121 104 121 149 151 133 122 64 113 150 157 142 123 107 82 58
142 141 138 131 122 119 114 100 96 113 105 93 83 87 74 42 53 101 74 63 70 94 104 103 101 93 96 124 126 89 107 133 206 168 177 146 190 168 166 161 140 123 104 87 63
141 142 138 132 124 120 110 97 89 116 108 76 45 83 54 25 59 82 70 79 70 79 77 101 107 99 116 107 67 168 256 144 162 193 151 194 146 182 181 163 145 132 117 97 52
140 141 137 132 127 117 110 104 87 102 114 85 77 84 76 34 32 54 53 81 92 74 87 65 76 74 37 63 202 266 247 110 188 216 209 138 151 169 175 171 159 139 111 74 45
140 138 138 135 129 124 124 98 66 63 60 73 87 91 75 66 45 65 43 36 31 206 93 35 68 56 293 264 247 261 265 119 128 213 169 226 165 176 179 175 151 115 87 57 62
139 136 135 137 132 123 68 60 115 119 72 70 71 80 63 54 53 55 49 47 94 50 34 32 66 275 301 11 324 302 348 33 84 181 168 183 183 178 178 177 147 123 12 247 80
141 141 135 139 142 98 21 125 130 109 97 65 49 51 35 52 47 12 26 47 82 64 50 108 240 296 43 35 19 27 76 37 305 185 316 15 89 170 182 140 161 192 225 109 32
141 145 140 135 123 93 114 127 145 315 80 329 1 27 2 72 47 26 39 33 38 119 117 86 353 346 26 72 40 324 118 323 281 116 258 146 283 220 169 169 179 210 121 68 29
146 148 141 92 134 134 134 86 322 217 65 335 12 53 46 80 348 21 33 57 59 34 71 261 22 9 39 322 11 245 180 205 211 225 25 225 98 317 134 209 203 129 92 64 29
152 157 159 137 141 151 182 326 303 48 62 34 14 265 79 44 33 36 39 53 43 62 47 98 64 68 274 288 246 289 327 74 26 98 355 211 158 195 199 206 120 127 83 62 9
164 167 175 144 201 215 236 329 56 79 267 67 49 39 88 19 29 51 61 34 53 54 29 65 29 360 356 338 355 13 32 356 352 358 237 186 119 268 146 111 131 126 101 60 5
176 181 182 189 297 252 279 52 73 108 81 253 229 60 89 359 340 27 103 39 14 27 45 15 324 6 348 96 248 314 99 132 294 284 286 54 248 247 168 139 139 127 114 39 0
180 187 202 239 279 256 300 54 170 359 330 149 78 225 70 47 84 85 61 61 30 24 97 12 280 207 45 322 75 337 41 176 249 327 5 224 315 289 173 186 164 129 90 50 4
170 174 205 233 237 181 72 137 118 25 358 4 94 54 99 2 47 75 84 316 32 30 26 322 331 195 238 333 288 85 219 22 24 318 295 289 228 234 204 202 194 123 101 72 15
149 143 154 166 150 70 114 124 117 48 46 61 38 79 66 59 56 59 29 338 9 319 347 23 107 287 34 169 208 -0 31 54 146 148 220 296 268 223 184 176 182 141 114 94 5
134 95 150 151 109 59 85 78 121 113 52 65 91 67 72 38 50 94 133 24 353 335 33 16 150 271 258 263 256 232 213 136 129 282 242 192 272 149 161 175 158 146 118 89 352
108 90 152 118 121 73 136 71 82 91 40 52 88 46 48 92 94 77 95 142 6 43 152 356 299 342 340 340 313 232 209 150 123 92 231 152 271 187 167 140 146 133 117 64 356
139 77 133 69 103 136 142 140 103 72 88 65 119 80 92 98 41 167 135 188 261 148 105 42 261 191 210 228 162 252 189 190 144 154 254 234 283 206 191 163 125 122 118 35 1
125 127 138 189 161 137 121 140 137 136 85 96 57 156 167 133 142 160 124 163 255 256 96 106 249 273 256 266 237 242 209 197 200 197 196 261 279 189 168 153 144 137 74 16 4
140 144 125 97 133 111 68 176 141 129 111 155 137 136 55 128 177 176 176 191 210 185 212 108 273 327 292 289 267 273 231 225 227 223 253 268 280 156 142 134 138 124 41 18 0
159 141 142 120 131 103 203 164 161 134 79 114 131 115 94 144 111 97 81 87 113 157 191 155 87 44 272 340 317 315 233 197 210 217 177 223 218 159 148 137 152 153 65 9 357